Printer-friendly version

IAU Minor Planet Center

Minor Planet Center

MPEC 2006-U51 : 2006 UA64

The following Minor Planet Electronic Circular may be linked-to from your own Web pages, but must not otherwise be redistributed electronically.


Read MPEC 2006-U50 Read MPEC 2006-U52


M.P.E.C. 2006-U51                                Issued 2006 Oct. 24, 15:48 UT

     The Minor Planet Electronic Circulars contain information on unusual
         minor planets and routine data on comets.  They are published
   on behalf of Commission 20 of the International Astronomical Union by the
          Minor Planet Center, Smithsonian Astrophysical Observatory,
                          Cambridge, MA 02138, U.S.A.

             Prepared using the Tamkin Foundation Computer Network

                              MPC@CFA.HARVARD.EDU
          URL http://cfa-www.harvard.edu/iau/mpc.html  ISSN 1523-6714

                                   2006 UA64

Observations:
     K06U64A* C2006 10 22.44809 07 21 13.03 +23 49 00.5          21.8 V EU051G96
     K06U64A  C2006 10 22.45531 07 21 13.32 +23 49 05.4          20.6 V EU051G96
     K06U64A  C2006 10 22.46253 07 21 13.64 +23 49 10.5          21.2 V EU051G96
     K06U64A  C2006 10 22.48671 07 21 14.70 +23 49 29.2          21.1 V EU051G96
     K06U64A  C2006 10 22.49566 07 21 15.07 +23 49 35.3          21.6 V EU051G96
     K06U64A  C2006 10 22.50472 07 21 15.48 +23 49 42.3          21.5 V EU051G96
     K06U64A  C2006 10 23.40338 07 21 55.87 +24 00 58.8          21.4 V EU051G96
     K06U64A  C2006 10 23.41078 07 21 56.16 +24 01 04.5          21.4 V EU051G96
     K06U64A  C2006 10 23.41824 07 21 56.48 +24 01 10.0          21.5 V EU051G96
     K06U64A  C2006 10 23.42572 07 21 56.80 +24 01 15.6          21.5 V EU051G96

Observer details:
G96 Mt. Lemmon Survey.  Observer R. A. Kowalski.  Measurers E. C. Beshore,
    E. J. Christensen, G. J. Garradd, A. R. Gibbs, A. D. Grauer, R. E. Hill,
    R. A. Kowalski, S. M. Larson, R. H. McNaught.  1.5-m reflector + CCD.

Orbital elements:
2006 UA64                                                Earth MOID = 0.5044 AU
Epoch 2006 Oct. 12.0 TT = JDT 2454020.5                 MPC
M 320.45116              (2000.0)            P               Q
n   0.26935416     Peri.  141.67934     -0.41408221     +0.25927495
a   2.3745806      Node    80.55488     -0.88466859     -0.34024780
e   0.8135200      Incl.   62.19294     +0.21423678     -0.90388491
P   3.66           H   17.3           G   0.15
From 10 observations 2006 Oct. 22-23.  E-assumed.

Ephemeris:
2006 UA64                a,e,i = 2.37, 0.81, 62                  q = 0.4428
Date    TT    R. A. (2000) Decl.     Delta      r     Elong.  Phase     V
2006 10 22    07 20.87   +23 43.5    1.735    2.144    99.9    27.2    21.4
2006 11 01    07 27.65   +26 08.1    1.495    2.042   108.7    27.4    20.9
2006 11 11    07 32.27   +29 34.3    1.262    1.935   118.0    26.9    20.4
2006 11 21    07 33.36   +34 35.7    1.044    1.825   127.8    25.3    19.9
2006 12 01    07 27.93   +42 03.6    0.848    1.709   137.2    23.1    19.2
2006 12 11    07 07.77   +52 58.8    0.688    1.587   142.7    22.1    18.6
2006 12 21    06 00.15   +67 04.5    0.581    1.460   136.4    27.7    18.2
2006 12 31    02 05.74   +74 53.6    0.543    1.327   117.9    40.9    18.2
2007 01 10    23 00.26   +64 27.6    0.570    1.187    96.0    55.5    18.5
2007 01 20    22 05.83   +51 46.2    0.636    1.041    76.6    66.9    18.8
2007 01 30    21 42.10   +41 22.5    0.715    0.888    60.5    74.9    18.9

Kyle E. Smalley              (C) Copyright 2006 MPC           M.P.E.C. 2006-U51

Read MPEC 2006-U50 Read MPEC 2006-U52


Our Web policy. Index to the CBAT/MPC/ICQ pages.


Valid HTML 4.01!